DRAGON CRS-15 (43522 NORAD) Tracking and Keplerian Element Data

This shows tracking and keplerian element data for the satellite.

Feedback or suggestion? Click here.




ElementValue
Catalog43522
NameDRAGON CRS-15
Epoch Orbit12574
Epoch Day214.64119063
Epoch Year2018
RAAN147.1806
Inclination51.6422
Eccentricity0.0005348
Argument of Perigee18.8252
Mean Anonmoly42.1543
Mean Motion15.53789424
Decay Rate9.33E-06
L11 43522U 18055A 18214.64119063 .00000933 00000-0 21606-4 0 9995
L22 43522 51.6422 147.1806 0005348 18.8252 42.1543 15.53789424125747



Live tracking and technical data element details for DRAGON CRS-15 (NORAD 43522). DRAGON CRS-15 can be tracked NOW for your location showing map with azimuth and elevation plus other details from your city location.







IsCatalogInMostPopularTable: catalog: 43522, numindb: 642
Update: records affected: 1



GetName: 43522 DRAGON CRS-15

Hit Count: updated at: Sat, 06 Dec 2025 19:00:29 GMT